Weather in Kardavil"

Russia / Nizhny Novgorod Oblast'     55°07′24″N   43°51′37″E
temp.,
°C
wind,
m/s
gust,
m/s
humid.,
%
clouds,
%
prec.,
mm/h
press.,
hPa
HPBL,
m
11 april, sun
sun1100:00+1n129683 0.0 102799
03:00−2n239816 0.0 102851
06:00−2nne249724 0.0 102968
09:00+6nne246768 0.0 1030314
12:00+8nne2355100 0.0 1030604
15:00+9ne345299 0.0 1031615
18:00+6ne2677100 0.0 1032155
21:00+2ene2887100 0.0 1034150
12 april, mon
mon1200:00+1ene310878 0.0 1034175
03:00+1ene41189100 0.0 1035244
06:00+3ene41481100 0.0 1035397
09:00+4ene51375100 0.0 1035428
12:00+9e51074100 0.0 1034489
15:00+10e5882100 0.0 1033597
18:00+8e4992100 0.0 1033434
21:00+7e3109796 0.0 1033257
13 april, tue
tue1300:00+6ese3109661 0.0 1032173
03:00+6se379374 0.0 1031112
06:00+7se3891100 0.0 1031138
09:00+13sse496373 0.0 1031356
12:00+17s573663 0.0 10301097
15:00+18s463428 0.0 10291388
18:00+15sse235147 0.0 102847
21:00+10sse35625 0.0 102882
14 april, wed
wed1400:00+8sse376788 0.0 1028106
03:00+7sse2473100 0.0 102860
06:00+7sse257690 0.0 102772
09:00+13sse3555100 0.0 1027333
12:00+17s354254 0.0 10251053
15:00+19sse34355 0.0 10241568
18:00+15se25518 0.0 1023105
21:00+11sse225897 0.0 102329
15 april, thu
thu1500:00+9sse2264100 0.0 102335
03:00+8sse246996 0.0 102257
06:00+7sse2473100 0.0 102176
09:00+12s3553100 0.0 1020332
12:00+17s344053 0.0 10191059
15:00+18ssw223369 0.0 10171542
18:00+15ssw224736 0.0 101615
21:00+11s115359 0.0 101610